Regional Weather Roundup
Issued by NWS

Home | Current Version | Previous Version | Graphics & Text | Print | Product List | Glossary On
Versions: 1 2 3 4 5 6 7 8 9 10 11 12 13 14 15 16 17 18 19 20 21 22 23 24 25 26 27 28 29 30 31 32 33 34 35 36 37 38 39 40 41 42 43 44 45 46 47 48 49 50
000
ASUS43 KMKX 251221
RWRWI

WISCONSIN REGIONAL WEATHER ROUNDUP
NATIONAL WEATHER SERVICE MILWAUKEE/SULLIVAN WI
700 AM CDT SAT APR 25 2015

NOTE: "FAIR" INDICATES FEW OR NO CLOUDS BELOW 12,000 FEET WITH NO
SIGNIFICANT WEATHER AND/OR OBSTRUCTIONS TO VISIBILITY.

WIZ001-002-006>008-014>016-023>028-251300-
NORTHWEST WISCONSIN

CITY           SKY/WX    TMP DP  RH WIND       PRES   REMARKS
SUPERIOR ARPT  CLOUDY    35  30  83 NE14G24   29.97R WCI  25
6HR MIN TEMP:  35; 6HR MAX TEMP:  35;

ASHLAND        CLOUDY    36  31  82 NE13      29.97S WCI  27
6HR MIN TEMP:  36; 6HR MAX TEMP:  38;

HAYWARD        MOCLDY    39  26  59 E7        29.92R WCI  34
6HR MIN TEMP:  39; 6HR MAX TEMP:  43;

SIREN          MOCLDY    42  32  67 E6        29.88R
6HR MIN TEMP:  42; 6HR MAX TEMP:  45;

CUMBERLAND     CLEAR     37  30  75 E9        29.87S WCI  31
RICE LAKE      PTCLDY    40  31  67 E10       29.89S WCI  34
6HR MIN TEMP:  40; 6HR MAX TEMP:  45;

CHETEK         PTCLDY    40  31  68 E9        29.88S WCI  35
6HR MIN TEMP:  40; 6HR MAX TEMP:  44;

LADYSMITH      CLOUDY    38  27  65 NE6       29.92R WCI  33
6HR MIN TEMP:  37; 6HR MAX TEMP:  44;

EAU CLAIRE     CLOUDY    40  28  62 E12       29.87R WCI  33
6HR MIN TEMP:  40; 6HR MAX TEMP:  43;

MENOMONIE      CLOUDY    41  32  70 E9        29.87R
6HR MIN TEMP:  41; 6HR MAX TEMP:  43;

NEW RICHMOND   PTCLDY    40  34  78 E13       29.84R WCI  32
6HR MIN TEMP:  39; 6HR MAX TEMP:  43;

OSCEOLA        CLOUDY    42  35  75 E9        29.87F
6HR MIN TEMP:  42; 6HR MAX TEMP:  45;

$$

WIZ003>005-009-010-017-018-251300-
NORTH CENTRAL WISCONSIN

CITY           SKY/WX    TMP DP  RH WIND       PRES   REMARKS
MANITOWISH WTR CLOUDY    37  22  55 E5        29.93S WCI  33
6HR MIN TEMP:  36; 6HR MAX TEMP:  40;

ARBOR VITAE    CLOUDY    37  19  48 E5        29.93S WCI  33
6HR MIN TEMP:  37; 6HR MAX TEMP:  41;

WOODRUFF       CLOUDY    37  19  48 E5        29.93S WCI  33
6HR MIN TEMP:  37; 6HR MAX TEMP:  41;

RHINELANDER    CLOUDY    35  19  52 E7        29.94S WCI  29
6HR MIN TEMP:  35; 6HR MAX TEMP:  39;

EAGLE RIVER    PTSUNNY   36  17  47 E6        29.94S WCI  31
6HR MIN TEMP:  35; 6HR MAX TEMP:  39;

LAND O LAKES   PTSUNNY   36  20  54 E5        29.95F WCI  32
6HR MIN TEMP:  35; 6HR MAX TEMP:  39;

PHILLIPS       PTCLDY    37  20  50 E7        29.91S WCI  31
6HR MIN TEMP:  37; 6HR MAX TEMP:  40;

TOMAHAWK       CLOUDY    37  17  45 CALM      29.93R
6HR MIN TEMP:  36; 6HR MAX TEMP:  38;

MEDFORD        CLOUDY    36  22  56 E7        29.89S WCI  31
6HR MIN TEMP:  36; 6HR MAX TEMP:  39;

MERRILL        CLOUDY    37  19  47 E8        29.91S WCI  31
6HR MIN TEMP:  37; 6HR MAX TEMP:  40;

$$

WIZ029-030-035-036-043>047-251300-
CENTRAL WISCONSIN

CITY           SKY/WX    TMP DP  RH WIND       PRES   REMARKS
WAUSAU         CLOUDY    37  20  50 E7        29.90R WCI  32
6HR MIN TEMP:  37; 6HR MAX TEMP:  40;

MOSINEE        CLOUDY    36  23  60 E10       29.91R WCI  28
MARSHFIELD     CLOUDY    38  25  59 E13       29.88R WCI  30
6HR MIN TEMP:  37; 6HR MAX TEMP:  38; 6HR PCP: TRACE;

STEVENS POINT  CLOUDY    36  24  61 NE7       29.91R WCI  30
6HR MIN TEMP:  34; 6HR MAX TEMP:  36;

WAUPACA        CLOUDY    40  28  61 NE6       29.92R
6HR MIN TEMP:  38; 6HR MAX TEMP:  40;

WAUTOMA        CLOUDY    38  33  82 NE8       29.90R WCI  32
6HR MIN TEMP:  37; 6HR MAX TEMP:  38;

WISC RAPIDS    CLOUDY    38  26  62 E9        29.90R WCI  31
6HR MIN TEMP:  37; 6HR MAX TEMP:  38;

CAMP DOUGLAS   CLOUDY    38  38 100 E8        29.86R WCI  32
6HR MIN TEMP:  38; 6HR MAX TEMP:  39; 6HR PCP: TRACE;

$$

WIZ011>013-019>022-031-037>040-048>050-251300-
NORTHEAST WISCONSIN

CITY           SKY/WX    TMP DP  RH WIND       PRES   REMARKS
ANTIGO         CLOUDY    35  18  49 E8        29.92S WCI  29
SHAWANO        CLOUDY    39  25  57 E14G20    29.94F WCI  31
6HR MIN TEMP:  39; 6HR MAX TEMP:  41;

OCONTO         CLOUDY    37  25  63 NE6       29.96R WCI  32
6HR MIN TEMP:  37; 6HR MAX TEMP:  39;

STURGEON BAY   CLOUDY    37  21  52 E7        29.98R WCI  32
6HR MIN TEMP:  36; 6HR MAX TEMP:  39;

GREEN BAY      CLOUDY    40  25  55 NE10      29.94R WCI  33
6HR MIN TEMP:  39; 6HR MAX TEMP:  41;

MANITOWOC      CLOUDY    39  26  59 NE8       29.93S WCI  33
6HR MIN TEMP:  38; 6HR MAX TEMP:  39;

APPLETON       CLOUDY    39  25  56 NE8       29.91S WCI  34
CLINTONVILLE   CLOUDY    37  23  56 E10       29.92F WCI  30
OSHKOSH        CLOUDY    40  32  73 NE10      29.90R WCI  33
6HR MIN TEMP:  39; 6HR MAX TEMP:  41;

$$

WIZ032>034-041-042-053>061-251300-
SOUTHWEST WISCONSIN

CITY           SKY/WX    TMP DP  RH WIND       PRES   REMARKS
LA CROSSE      CLOUDY    42  35  76 VRB5      29.83R
6HR MIN TEMP:  42; 6HR MAX TEMP:  44;

SPARTA         CLOUDY    39  34  83 E12       29.86R WCI  32
6HR MIN TEMP:  39; 6HR MAX TEMP:  40;

VIROQUA        CLOUDY    38  37  93 E15       29.81R WCI  30
6HR MIN TEMP:  38; 6HR MAX TEMP:  39;

BOSCOBEL       CLOUDY    42  34  73 NE9       29.81R
6HR MIN TEMP:  42; 6HR MAX TEMP:  42;

PRAIRIE DU CHI CLOUDY    42  34  73 E6        29.78R
6HR MIN TEMP:  42; 6HR MAX TEMP:  43;

PLATTEVILLE    CLOUDY    41  37  83 NE16G24   29.75S
6HR MIN TEMP:  40; 6HR MAX TEMP:  41;

$$

WIZ056-057-062-063-064-067-068-251300-
SOUTH CENTRAL WISCONSIN

CITY           SKY/WX    TMP DP  RH WIND       PRES   REMARKS
REEDSBURG      CLOUDY    38  35  87 NE9       29.85R WCI  32
6HR MIN TEMP:  38; 6HR MAX TEMP:  38;

BARABOO/DELLS  CLOUDY    38  34  85 NE10      29.85R WCI  31
6HR MIN TEMP:  37; 6HR MAX TEMP:  38;

LONE ROCK      CLOUDY    41  34  76 E14       29.82R
6HR MIN TEMP:  40; 6HR MAX TEMP:  41;

MINERAL POINT  CLOUDY    41  36  81 E15       29.77S
MADISON        CLOUDY    40  34  79 NE12      29.83R WCI  33
6HR MIN TEMP:  40; 6HR MAX TEMP:  40;

MIDDLETON      CLOUDY    41  35  77 NE12      29.83R
6HR MIN TEMP:  41; 6HR MAX TEMP:  41;

WATERTOWN      CLOUDY    40  38  93 E10       29.85R WCI  33
6HR MIN TEMP:  38; 6HR MAX TEMP:  40;

MONROE         CLOUDY    41  36  81 NE12G18   29.77F
JANESVILLE     NOT AVBL
$$

WIZ051-052-058>065-066-070>072-251300-
SOUTHEAST WISCONSIN

CITY           SKY/WX    TMP DP  RH WIND       PRES   REMARKS
MILWAUKEE      CLOUDY    40  35  83 E10       29.87R WCI  33
6HR MIN TEMP:  38; 6HR MAX TEMP:  41;

WAUKESHA       CLOUDY    37  34  87 E8        29.86S WCI  31
MILWAUKEE/TIMM CLOUDY    39  34  81 NE7       29.88R WCI  34
RACINE         CLOUDY    41  36  82 E10       29.87R
6HR MIN TEMP:  40; 6HR MAX TEMP:  41;

BURLINGTON     CLOUDY    40  36  84 E9        29.83F WCI  34
6HR MIN TEMP:  38; 6HR MAX TEMP:  40;

KENOSHA        CLOUDY    41  37  86 E12       29.84S
6HR MIN TEMP:  40; 6HR MAX TEMP:  41;

FOND DU LAC    CLOUDY    40  33  76 NE9       29.89R WCI  34
6HR MIN TEMP:  39; 6HR MAX TEMP:  40;

SHEBOYGAN      CLOUDY    39  32  76 NE13      29.90S WCI  31
6HR MIN TEMP:  34; 6HR MAX TEMP:  39;

WEST BEND      CLOUDY    37  32  81 NE8       29.88R WCI  31
JUNEAU         CLOUDY    39  35  84 NE10      29.87R WCI  32
6HR MIN TEMP:  38; 6HR MAX TEMP:  39;

$$

LSZ147-162-251300-
LAKE SUPERIOR

STATION/POSITION TIME  TEMP    WIND        PRES    WAVE
                       AIR SEA DIR/SP/G            HT/PER
                 (UTC) (F)     (DEG/KT/KT) (MB)    (FT/S)
W MID LAKE BUOY  1150   34 34   60/ 16/ 17 1018.0R   3/ 4
DEVILS ISLAND    1200   35      70/ 20/ 22 1016.8R
PORT WING        1100   37      40/ 16/ 20 1014.9R
SAXON HARBOR     1140   37        CALM     1014.6R
$$

LMZ867-665-643>646-251300-
LAKE MICHIGAN

STATION/POSITION TIME  TEMP    WIND        PRES    WAVE



USA.gov is the U.S. government's official web portal to all federal, state and local government web resources and services.